Regional Weather Roundup
Issued by NWS Northern Indiana

Home | Current Version | Previous Version | Graphics & Text | Print | Product List | Glossary On
Versions: 1 2 3 4 5 6 7 8 9 10 11 12 13 14 15 16 17 18 19 20 21 22 23 24 25 26 27 28 29 30 31 32 33 34 35 36 37 38 39 40 41 42 43 44 45 46 47 48 49 50
000
ASUS43 KIWX 262200
RWRIWX

KIWX WEATHER ROUNDUP
NATIONAL WEATHER SERVICE NORTHERN INDIANA
500 PM EST THU FEB 26 2015

NOTE: "FAIR" INDICATES FEW OR NO CLOUDS BELOW 12,000 FEET WITH NO
SIGNIFICANT WEATHER AND/OR OBSTRUCTIONS TO VISIBILITY.

* THESE STATIONS ARE NOT UNDER NWS QUALITY CONTROL. THEY ALSO MAY NOT
  REPORT WEATHER SUCH AS PRECIPITATION OR FOG.

INZ001>027-262300-
NORTHERN INDIANA

CITY           SKY/WX    TMP DP  RH WIND       PRES   REMARKS
GARY*          SNOW      18  12  79 N20       30.28R VSB 1/4 WCI   1
VALPARAISO     LGT SNOW  15  10  80 N9        30.24S WCI   3
SOUTH BEND     PTSUNNY   14   0  53 N18       30.24R WCI  -3
ELKHART*       MOSUNNY   16  -6  38 NW9       30.23R WCI   4
GOSHEN         CLOUDY    16   3  56 N10       30.21R WCI   4
MONTICELLO*    CLOUDY    16   5  62 N15       30.24R WCI   1
ANGOLA*        CLOUDY    14   3  62 NW6       30.18R WCI   5
FORT WAYNE     CLOUDY    17   5  59 N12       30.20R WCI   4
PERU/GRISSOM   LGT SNOW  18  10  73 N13       30.20R FOG     WCI   4

$$
INZ028>050-262300-
CENTRAL INDIANA

CITY           SKY/WX    TMP DP  RH WIND       PRES   REMARKS
LAFAYETTE      CLOUDY    17   8  67 N15       30.25R WCI   2
KOKOMO*        PTSUNNY   19  10  68 N10       30.21R WCI   8
MUNCIE*        CLOUDY    16   6  65 N10       30.19R WCI   4
INDIANAPOLIS   CLOUDY    19   8  62 NW16      30.20R WCI   4

$$
MIZ043>046-050>051-056>058-064>065-071>073-077>080-262300-
SOUTHWEST LOWER MICHIGAN

CITY           SKY/WX    TMP DP  RH WIND       PRES   REMARKS
BATTLE CREEK   MOSUNNY   15  -1  49 NE8       30.20R WCI   4
BENTON HARBOR  CLOUDY    13   0  56 N9G17     30.26R WCI   1
COLDWATER*     CLOUDY    14   2  59 NE7       30.19R WCI   3
HILLSDALE*     CLOUDY    13   2  59 N8        30.16R WCI   2
HOLLAND        MOSUNNY   15  -5  40 E5        30.25R WCI   8
GRAND RAPIDS   PTSUNNY   14  -6  40 VRB5      30.22R WCI   6
KALAMAZOO      SUNNY     14  -1  51 N12       30.21R WCI   0
STURGIS*       CLOUDY    16   3  57 N8        30.19R WCI   5
THREE RIVERS*  FAIR      16   0  50 N5        30.22R WCI   9

$$
OHZ001>008-015>018-024>025-262300-
NORTHWEST OHIO

CITY           SKY/WX    TMP DP  RH WIND       PRES   REMARKS
DEFIANCE       LGT SNOW  16   7  67 N7        30.20R WCI   6
FINDLAY        CLOUDY    14   3  61 NE8       30.17R WCI   3
TOLEDO EXPRESS CLOUDY    15   3  59 N12       30.19R WCI   2
TOLEDO METCALF CLOUDY    15   6  67 E5        30.20R WCI   8
LIMA           CLOUDY    14   4  64 N12       30.16R WCI   0

$$
AND FOR LAKE MICHIGAN COASTAL AND OPEN LAKE BUOY OBSERVATIONS

STATION/POSITION TEMP    WIND        PRES    VSBY  WAVE
                 AIR SEA DIR/SP/G                  HT/PER
                 (F)     (DEG/KT/KT) (MB)    (MI)  (FT/S)
CALUMET HARBOR    17     330/ 15/ 20 1023.8R
MICHIGAN CITY     15     360/ 12/ 18   N/A
SAINT JOSEPH      13     350/ 11/ 16 1024.7R

$$
&&



USA.gov is the U.S. government's official web portal to all federal, state and local government web resources and services.